User: anonymous   Login
Location: Unspecified
(0.0000°N, 0.0000°E)
Time: 23:02:32
(UTC+00:00)
Language:

AO-91 - Orbit

View from above orbital plane
View from above orbital plane
View from above satellite
View from above satellite

Ground track
Ground track

The orbit data is extracted from the following two-line orbital elements,

1 43017U 17073E   20184.74752470  .00000496  00000-0  44028-4 0  9995
2 43017  97.7224  96.3927 0257072   0.9041 359.2583 14.78956825141423
Epoch (UTC): 02 July 2020 17:56:26
Eccentricity: 0.0257072
inclination: 97.7224°
perigee height: 452 km
apogee height: 813 km
right ascension of ascending node: 96.3927°
argument of perigee: 0.9041°
revolutions per day: 14.78956825
mean anomaly at epoch: 359.2583°
orbit number at epoch: 14142

The dashed part of the orbit path shows where the satellite is in the earth's shadow,  

DLR